Location: Asheville, NC
(35.6000°N, 82.5500°W)
Time: 03:11:27
(UTC-04:00)

RS-15 - Visible Passes

Search period start: 18 June 2018 00:00
Search period end: 28 June 2018 00:00
Orbit: 1890 x 2154 km, 64.8° (Epoch: 17 June)

Date Brightness Start Highest point End Pass type
(mag) Time Alt. Az. Time Alt. Az. Time Alt. Az.
21 Jun 10.0 05:28:08 10° SSE 05:37:02 24° ESE 05:45:46 10° NE visible
22 Jun 10.1 04:54:59 10° SE 05:01:34 16° E 05:08:01 10° ENE visible
25 Jun 9.4 05:14:11 10° SSE 05:24:43 35° ESE 05:35:00 10° NE visible
26 Jun 9.7 04:39:57 10° SSE 04:49:07 26° ESE 04:58:05 10° NE visible
27 Jun 9.9 04:06:37 10° SE 04:13:36 17° E 04:20:29 10° ENE visible
